[[{"header":{"parameterUnit":"m.s-1","parameterCategory":1,"la1":30.2991,"la2":30.254,"lo1":-89.0895,"lo2":-89.0444,"dy":0.0017,"dx":0.0017,"nx":28,"ny":28,"refTime":"2025-08-01T21:00:00:Z","depth":0,"parameterNumber":2,"parameterNumberName":"U-component_of_WINDS"},"data":[0,0,0,0,0,0,0,0,0,0,0,0,0,0,0,0,0,0,0,0,0,0,0,0,0,0,0,0,0,0,0,0,0,0,0,0,0,0,0,0,0,0,0,0,0,0,0,0,0,0,0,0,0,0,0,0,0,0,0.9636,0.9637,0,0.9714,0.9715,0.9716,0.971,0.9709,0.9708,0.9707,0.979,0.9793,0.9796,0,0,0,0,0,0,0,0,0,0,0,0,0,0.9487,0.949,0.9636,0.9637,0.9638,0.9714,0.9715,0.9716,0.9711,0.9709,0.9708,0.9707,0.9788,0.9792,0.9796,0,0,0,0,0,0,0,0,0,0,0,0,0,0.9557,0.9491,0.9636,0.9645,0.9646,0.9713,0.9715,0.9716,0.9711,0.9709,0.9707,0.9706,0.9787,0.9792,0.9797,0.9862,0,0,0.9812,0.9814,0,0,0,0,0,0,0,0,0.9553,0.9562,0.9642,0.9644,0.9646,0.9701,0.9692,0.9765,0.9711,0.9686,0.9707,0.9705,0.9762,0.9768,0.9787,0.9865,0.9869,0.9812,0.9815,0.9817,0.9819,0,0,0,0,0,0,0,0.9548,0.9559,0.9667,0.9644,0.9646,0.9646,0.9654,0.9706,0.9733,0.9688,0.9688,0.9697,0.9762,0.9782,0.9789,0.987,0.9812,0.9816,0.9819,0.9821,1.0007,1.0009,0,0,0,0,0,0,0.9541,0.9555,0.9665,0.9669,0.9594,0.965,0.9659,0.9685,0.9732,0.9738,0.9699,0.9697,0.9775,0.9783,0.9792,0.9871,0.9817,0.9822,0.9825,1.0005,1.0007,1.0009,0,0,0,0,0,0,0.9538,0.9551,0.9661,0.9612,0.9626,0.9654,0.9684,0.9687,0.9707,0.974,0.9745,0.9714,0.9774,0.9785,0.9844,0.9874,0.9824,0.9828,1.0003,1.0006,1.0008,1.0031,0,0,0,0,0,0,0.9533,0.955,0.9574,0.9613,0.9629,0.9712,0.9685,0.969,0.9715,0.9714,0.9756,0.9761,0.9773,0.9837,0.9849,0.988,0.9832,1.0,1.0004,1.0007,1.0027,1.0034,1.004,0,0,0,0,0,0.9528,0.9577,0.9575,0.9588,0.9659,0.9713,0.9723,0.9735,0.9718,0.9743,0.9764,0.976,0.9869,0.9843,0.9857,0.9889,0.9998,1.0003,1.0007,1.0025,1.0033,1.004,0,0,0,0,0,0,0.9542,0.9583,0.958,0.9643,0.9675,0.9712,0.9744,0.9743,0.9781,0.9778,0.9792,0.9802,0.9862,0.9881,0.9852,0.9955,0.9931,0.9939,0.994,0.9948,0.9954,0.9948,0.9836,0,0,0,0,0,0.9552,0.9592,0.9625,0.9678,0.9694,0.9716,0.974,0.9747,0.978,0.9794,0.9819,0.9853,0.9895,0.9923,0.9963,1.003,1.004,1.0059,1.0066,1.007,1.0077,1.0115,1.0125,1.0024,1.0024,1.0024,0,0,0.9574,0.9601,0.9625,0.9681,0.9706,0.9748,0.9728,0.9772,0.9804,0.9801,0.9859,0.9879,0.9917,0.9981,1.0011,1.0,1.0107,1.0076,1.008,1.0084,1.0121,1.013,1.0139,1.0027,1.0027,1.0026,0,0,0.9635,0.9659,0.9706,0.9731,0.9769,0.9784,0.9795,0.9833,0.9846,0.9904,0.9903,0.9941,1.0013,1.0041,1.0064,1.0137,1.0135,1.015,1.0182,1.0219,1.0227,1.0234,1.0261,1.027,1.0156,1.0156,1.0156,0,0.9658,0.9719,0.973,0.9775,0.9801,0.9799,0.9847,0.9872,0.9922,0.994,0.9926,1.0017,1.0043,1.0113,1.0131,1.015,1.0164,1.0145,1.0225,1.0232,1.0239,1.0265,1.0274,1.0157,1.0157,1.0157,1.0157,0,0.9746,0.9789,0.9822,0.9869,0.9898,0.9945,0.9964,0.9992,0.9996,1.0013,1.0072,1.0103,1.015,1.0167,1.0172,1.0239,1.0231,1.0221,1.0198,1.025,1.0274,1.0284,1.016,1.0159,1.0159,1.0158,0,0,0.9818,0.9871,0.9883,0.9905,0.9947,0.9981,1.0028,1.0073,1.0097,1.0132,1.0172,1.0233,1.0224,1.0251,1.0259,1.0291,1.0348,1.0277,1.0278,1.029,1.0425,1.0433,1.0444,1.0346,1.0348,1.035,1.0422,0,0.9884,0.9966,0.9978,1.0051,1.0091,1.0091,1.0132,1.0163,1.018,1.0218,1.0237,1.028,1.0264,1.028,1.0312,1.0334,1.0375,1.0329,1.0386,1.0387,1.0377,1.0457,1.0465,1.0532,1.0432,1.0433,1.0434,0,0.9972,1.0008,1.0085,1.0123,1.014,1.0177,1.022,1.0255,1.0291,1.0301,1.0331,1.0335,1.0385,1.0359,1.0428,1.0397,1.0421,1.0435,1.0438,1.0444,1.0415,1.0466,1.0553,1.0564,1.0449,1.0448,1.0447,0,1.0018,1.0086,1.0141,1.016,1.0205,1.0231,1.0251,1.0284,1.0311,1.0349,1.0366,1.041,1.0434,1.0468,1.0484,1.0463,1.0553,1.0528,1.0564,1.0564,1.0584,1.0582,1.0677,1.0597,1.0597,1.0597,1.0597,0,1.0091,1.0139,1.0163,1.0197,1.025,1.0263,1.0316,1.0336,1.0366,1.0405,1.0407,1.0443,1.0462,1.0502,1.0515,1.0571,1.0582,1.0592,1.0595,1.0593,1.0591,1.0609,1.0605,1.06,1.0599,1.0599,1.0598,0,1.0152,1.017,1.023,1.0267,1.0278,1.0316,1.0348,1.0382,1.0398,1.0447,1.046,1.0486,1.0533,1.0552,1.061,1.0619,1.0684,1.0683,1.0672,1.0673,1.0708,1.0705,1.0818,1.0834,1.0743,1.0744,1.0745,0,1.0198,1.0234,1.0275,1.0301,1.0322,1.0363,1.039,1.0405,1.0433,1.0477,1.0505,1.0552,1.059,1.0665,1.069,1.0735,1.0735,1.0772,1.0742,1.0738,1.0737,1.0735,1.0739,1.0778,1.0779,1.0779,1.078,0,1.0278,1.0285,1.0323,1.0365,1.0397,1.0431,1.0465,1.0486,1.0505,1.0537,1.0585,1.0614,1.0673,1.072,1.0766,1.0787,1.0788,1.0789,1.08,1.0798,1.079,1.0796,1.0688,1.0786,1.0786,1.0785,1.0785,1.0785,1.0333,1.0366,1.04,1.0443,1.047,1.0501,1.0534,1.0555,1.0594,1.0643,1.0649,1.07,1.0736,1.0797,1.0821,1.0862,1.0853,1.0868,1.0873,1.0876,1.0879,1.0783,1.087,1.087,1.087,1.087,1.087,0,1.0414,1.0436,1.0475,1.0522,1.0556,1.0552,1.0588,1.0618,1.0662,1.0695,1.0732,1.0788,1.0833,1.0862,1.0908,1.0935,1.0937,1.0947,1.0946,1.0951,1.0884,1.0871,1.0945,1.0945,1.0945,1.0945,1.0945,1.0945,1.046,1.0516,1.0527,1.0596,1.0618,1.0667,1.0689,1.0718,1.0744,1.0805,1.0843,1.0861,1.0892,1.0941,1.0983,1.099,1.1007,1.1019,1.1026,1.0963,1.0955,1.0948,1.0935,1.1022,1.1022,1.1089,1.1089,1.109]},{"header":{"parameterUnit":"m.s-1","parameterCategory":1,"la1":30.2991,"la2":30.254,"lo1":-89.0895,"lo2":-89.0444,"dy":0.0017,"dx":0.0017,"nx":28,"ny":28,"refTime":"2025-08-01T21:00:00:Z","depth":0,"parameterNumber":3,"parameterNumberName":"V-component_of_WINDS"},"data":[0,0,0,0,0,0,0,0,0,0,0,0,0,0,0,0,0,0,0,0,0,0,0,0,0,0,0,0,0,0,0,0,0,0,0,0,0,0,0,0,0,0,0,0,0,0,0,0,0,0,0,0,0,0,0,0,0,0,-0.8111,-0.811,0,-0.8035,-0.8034,-0.8033,-0.8007,-0.8007,-0.8008,-0.8008,-0.7927,-0.7925,-0.7923,0,0,0,0,0,0,0,0,0,0,0,0,0,-0.8232,-0.823,-0.8111,-0.811,-0.8109,-0.8035,-0.8034,-0.8033,-0.8007,-0.8007,-0.8008,-0.8008,-0.7928,-0.7925,-0.7922,0,0,0,0,0,0,0,0,0,0,0,0,0,-0.817,-0.8229,-0.8111,-0.8087,-0.8084,-0.8035,-0.8034,-0.8033,-0.8007,-0.8007,-0.8008,-0.8008,-0.7929,-0.7926,-0.7922,-0.789,0,0,-0.7911,-0.7909,0,0,0,0,0,0,0,0,-0.8174,-0.8166,-0.8092,-0.8089,-0.8085,-0.8031,-0.8047,-0.7985,-0.8007,-0.8036,-0.8008,-0.8008,-0.7961,-0.7955,-0.794,-0.7886,-0.7883,-0.791,-0.7908,-0.7907,-0.7906,0,0,0,0,0,0,0,-0.8178,-0.8169,-0.8081,-0.8091,-0.8087,-0.808,-0.8072,-0.8035,-0.7997,-0.8034,-0.8032,-0.8023,-0.796,-0.7943,-0.7938,-0.7882,-0.7911,-0.7907,-0.7905,-0.7904,-0.7801,-0.78,0,0,0,0,0,0,-0.8187,-0.8173,-0.8083,-0.8078,-0.8132,-0.8077,-0.8068,-0.8048,-0.7997,-0.799,-0.8023,-0.8022,-0.7949,-0.7942,-0.7935,-0.7895,-0.7907,-0.7903,-0.7901,-0.7801,-0.7801,-0.78,0,0,0,0,0,0,-0.8189,-0.8179,-0.8086,-0.8125,-0.8113,-0.8075,-0.8052,-0.8046,-0.803,-0.7989,-0.7982,-0.8013,-0.7949,-0.794,-0.7902,-0.7892,-0.7902,-0.7898,-0.7802,-0.7801,-0.78,-0.7816,0,0,0,0,0,0,-0.8193,-0.818,-0.8168,-0.8125,-0.8111,-0.8055,-0.8052,-0.8044,-0.8024,-0.8022,-0.7978,-0.7971,-0.7949,-0.7908,-0.7899,-0.7887,-0.7895,-0.7803,-0.7802,-0.7801,-0.7816,-0.7816,-0.7816,0,0,0,0,0,-0.8197,-0.8174,-0.8167,-0.8157,-0.8095,-0.8055,-0.8047,-0.8022,-0.8023,-0.8011,-0.7985,-0.7973,-0.7895,-0.7904,-0.7893,-0.7881,-0.7803,-0.7802,-0.7801,-0.7816,-0.7816,-0.7816,0,0,0,0,0,0,-0.8215,-0.8168,-0.816,-0.8122,-0.8093,-0.8051,-0.8034,-0.8022,-0.7991,-0.7991,-0.7961,-0.7951,-0.7916,-0.7895,-0.7906,-0.7849,-0.7848,-0.7845,-0.7864,-0.7863,-0.7863,-0.7869,-0.7892,0,0,0,0,0,-0.8215,-0.8187,-0.8147,-0.8118,-0.8104,-0.8072,-0.8053,-0.8037,-0.8005,-0.7992,-0.7964,-0.7933,-0.7901,-0.7881,-0.785,-0.7813,-0.7804,-0.78,-0.7799,-0.7799,-0.7797,-0.7777,-0.7775,-0.7796,-0.7796,-0.7796,0,0,-0.8214,-0.8185,-0.8169,-0.8121,-0.8096,-0.8068,-0.8061,-0.8031,-0.801,-0.7987,-0.7951,-0.7929,-0.7892,-0.7856,-0.7838,-0.7836,-0.7789,-0.7798,-0.7798,-0.7795,-0.7776,-0.7774,-0.7772,-0.7795,-0.7795,-0.7795,0,0,-0.8198,-0.8173,-0.8146,-0.8122,-0.8086,-0.8065,-0.8059,-0.8018,-0.8004,-0.7967,-0.795,-0.7924,-0.787,-0.7845,-0.7825,-0.7802,-0.779,-0.7793,-0.7791,-0.7772,-0.7771,-0.7769,-0.7762,-0.7759,-0.779,-0.779,-0.779,0,-0.8201,-0.8158,-0.8134,-0.8105,-0.8085,-0.8065,-0.8039,-0.8016,-0.7971,-0.7958,-0.7957,-0.7891,-0.7864,-0.7822,-0.7817,-0.7802,-0.7794,-0.7797,-0.7773,-0.7771,-0.7769,-0.7762,-0.7759,-0.7791,-0.7791,-0.7791,-0.7791,0,-0.8164,-0.8135,-0.8118,-0.8077,-0.8055,-0.8027,-0.7999,-0.7979,-0.7966,-0.7945,-0.7908,-0.7876,-0.7839,-0.7828,-0.7813,-0.7784,-0.7785,-0.7779,-0.7778,-0.7768,-0.7761,-0.7758,-0.7792,-0.7792,-0.7791,-0.7791,0,0,-0.8156,-0.8103,-0.8097,-0.8079,-0.8038,-0.8015,-0.7987,-0.7952,-0.7937,-0.7906,-0.7882,-0.7839,-0.7834,-0.7812,-0.7794,-0.7778,-0.7763,-0.7774,-0.7773,-0.7774,-0.773,-0.7735,-0.7732,-0.7755,-0.7755,-0.7754,-0.7733,0,-0.8135,-0.8085,-0.8063,-0.8023,-0.7997,-0.7978,-0.7954,-0.7926,-0.7906,-0.7881,-0.7858,-0.7828,-0.7824,-0.781,-0.7793,-0.7769,-0.7754,-0.777,-0.7732,-0.7731,-0.7743,-0.7728,-0.7732,-0.7714,-0.773,-0.773,-0.7729,0,-0.8103,-0.8075,-0.8033,-0.7997,-0.7985,-0.7964,-0.7931,-0.7906,-0.7875,-0.7862,-0.7838,-0.7822,-0.7792,-0.7794,-0.7753,-0.7764,-0.7747,-0.7733,-0.7732,-0.7727,-0.773,-0.7723,-0.7708,-0.7705,-0.7724,-0.7725,-0.7725,0,-0.8103,-0.8054,-0.8023,-0.8008,-0.7965,-0.7951,-0.7932,-0.7901,-0.7882,-0.7853,-0.784,-0.7808,-0.779,-0.7765,-0.7741,-0.7744,-0.7702,-0.7701,-0.769,-0.7691,-0.7682,-0.7683,-0.7664,-0.7671,-0.7671,-0.7671,-0.7671,0,-0.8082,-0.8057,-0.8023,-0.8003,-0.7975,-0.7951,-0.7923,-0.7903,-0.7876,-0.7853,-0.7834,-0.7813,-0.7782,-0.7756,-0.7737,-0.7706,-0.7698,-0.7687,-0.7682,-0.7688,-0.769,-0.7677,-0.7678,-0.7671,-0.7671,-0.7671,-0.7671,0,-0.8077,-0.8052,-0.8017,-0.798,-0.7971,-0.7952,-0.792,-0.79,-0.788,-0.7851,-0.7843,-0.7811,-0.778,-0.7754,-0.7712,-0.77,-0.7668,-0.7662,-0.7679,-0.7677,-0.7667,-0.7669,-0.764,-0.7635,-0.7645,-0.7645,-0.7645,0,-0.8065,-0.8046,-0.8007,-0.7991,-0.7973,-0.7947,-0.7928,-0.7903,-0.7884,-0.7848,-0.7833,-0.7801,-0.7775,-0.7726,-0.7699,-0.7668,-0.7661,-0.7653,-0.7656,-0.7664,-0.7662,-0.7663,-0.7661,-0.7653,-0.7653,-0.7653,-0.7653,0,-0.8048,-0.8037,-0.8011,-0.7981,-0.7959,-0.7934,-0.7908,-0.7896,-0.7866,-0.7846,-0.7815,-0.7794,-0.7754,-0.7722,-0.7688,-0.7669,-0.7656,-0.7652,-0.7648,-0.7655,-0.7666,-0.766,-0.7679,-0.7653,-0.7653,-0.7653,-0.7653,-0.7653,-0.8039,-0.8022,-0.7993,-0.7964,-0.7943,-0.792,-0.79,-0.7879,-0.7853,-0.7818,-0.7805,-0.7774,-0.7744,-0.7698,-0.7678,-0.7653,-0.7651,-0.7645,-0.7643,-0.7642,-0.7644,-0.767,-0.7646,-0.7646,-0.7646,-0.7646,-0.7646,0,-0.8021,-0.8002,-0.7976,-0.7942,-0.792,-0.7911,-0.7883,-0.7865,-0.7838,-0.7812,-0.7786,-0.7751,-0.7721,-0.7693,-0.7661,-0.7647,-0.764,-0.7639,-0.764,-0.7636,-0.7647,-0.7654,-0.7645,-0.7645,-0.7645,-0.7645,-0.7645,-0.7645,-0.8009,-0.798,-0.7966,-0.7926,-0.7907,-0.7877,-0.7861,-0.784,-0.7819,-0.7781,-0.7757,-0.7739,-0.7712,-0.7679,-0.7651,-0.7643,-0.7632,-0.7633,-0.7624,-0.7635,-0.7635,-0.7635,-0.7642,-0.7631,-0.7631,-0.7615,-0.7615,-0.7615]}]]